Wind_Speed
20 21 22 23 24 24 25 26 27 28 29 30 32 33 34 36 37 38 39 40 41 42 43 44 45 45 46 47 47 48 49 50 51 52 53 54 54 54 54 54 54 55 54 55 55 55 55 54 53 53 53 52 52 51 50 49 48 47 47 46 44 42 40 38 36 35 35 35 35 35 34 33 33 33 33 32 31 29 28 27 27 29 30 30 27 25 23 21
20 21 21 22 23 24 25 26 27 28 29 30 32 33 34 36 37 38 39 41 42 43 44 45 46 48 48 49 50 50 50 50 51 51 52 53 54 54 55 55 55 55 55 55 55 55 55 54 54 53 53 54 53 53 52 51 50 49 48 47 45 43 41 39 38 37 37 38 37 36 36 34 33 33 34 34 34 33 32 31 29 28 28 27 26 25 23 21
20 21 22 23 23 24 25 25 26 27 28 29 30 32 33 35 36 38 39 40 42 43 44 45 47 48 49 50 51 52 52 53 52 53 53 53 53 54 54 55 55 56 56 56 55 55 55 54 53 53 53 53 54 54 53 52 52 51 50 48 46 45 43 41 41 40 40 40 39 38 37 35 34 34 34 34 33 34 34 34 33 32 31 29 28 26 24 23
21 21 21 21 22 22 23 24 25 26 27 28 30 31 33 35 36 38 39 41 42 43 44 46 47 48 50 51 52 53 53 54 54 55 55 55 55 55 55 55 55 56 56 56 56 55 55 54 53 52 52 52 53 53 53 53 52 51 50 49 47 46 44 43 43 42 42 42 41 40 38 36 35 34 34 33 32 34 34 34 35 35 35 33 31 30 28 27
18 19 19 20 20 21 22 23 24 25 27 28 30 32 33 35 37 39 40 42 44 45 46 47 48 49 50 51 52 53 53 54 55 55 56 56 57 57 57 56 56 56 56 56 56 56 56 56 55 53 52 52 52 52 53 52 52 52 50 49 48 46 45 45 44 44 44 43 42 42 40 37 36 35 33 33 33 35 35 34 35 36 36 35 33 31 31 30
17 18 18 19 20 20 21 22 23 25 26 28 30 32 34 37 39 40 42 44 45 47 48 49 50 51 51 52 53 53 54 55 55 55 56 57 57 58 58 58 58 59 58 57 56 56 56 56 56 55 54 52 52 52 52 52 52 51 50 49 48 47 47 46 46 45 44 44 43 42 41 39 39 37 35 35 35 35 35 34 34 34 35 35 34 32 32 31
17 18 18 18 19 20 20 22 23 25 27 30 32 34 36 38 39 40 41 42 44 45 46 47 49 50 51 52 53 54 55 56 56 56 57 57 57 57 58 58 59 60 60 59 58 57 57 56 57 57 56 55 53 52 52 52 52 51 50 50 49 48 48 48 47 46 44 43 43 42 42 41 40 39 36 36 36 35 34 34 34 33 34 34 34 33 32 33
17 17 17 18 19 19 21 23 25 28 31 33 35 37 36 35 35 35 35 36 37 37 38 40 41 43 45 47 49 52 53 55 56 57 57 58 58 58 58 58 59 59 60 60 60 60 59 58 57 57 57 57 56 54 54 53 53 52 51 50 49 48 48 48 48 46 44 43 43 42 42 42 41 39 37 36 36 35 34 35 34 33 33 33 33 33 32 32
17 17 18 18 19 21 23 26 29 32 35 37 38 37 34 32 31 30 30 31 31 32 32 33 34 35 36 37 40 43 46 49 52 54 56 57 58 58 58 59 59 59 59 59 60 60 60 60 59 58 58 57 57 57 56 56 55 53 52 51 49 49 48 48 47 46 44 44 43 42 42 42 41 40 39 38 37 36 35 35 33 32 32 32 32 32 32 31
18 18 19 20 22 24 27 30 33 36 39 41 40 35 30 28 28 28 28 28 28 28 28 29 30 31 31 32 33 34 37 39 42 46 49 53 56 57 58 59 60 60 60 59 59 60 60 60 60 60 59 58 58 58 58 57 56 54 53 52 50 49 49 48 46 45 44 43 42 42 42 42 41 40 40 39 37 36 35 34 33 32 31 31 31 31 32 31
20 21 22 23 25 27 30 34 37 39 42 43 39 32 27 27 27 27 27 26 26 25 25 25 25 26 27 27 28 28 29 30 32 35 38 42 47 50 54 57 59 60 61 60 59 59 59 60 61 61 61 60 60 60 59 58 57 56 55 53 52 51 50 48 47 46 44 43 42 42 42 41 41 41 40 39 38 37 35 33 33 33 32 31 31 31 31 30
23 24 25 27 28 31 33 36 40 42 45 44 38 30 27 27 28 28 27 26 25 24 23 21 20 19 19 20 20 21 21 23 24 26 28 31 34 39 43 48 53 56 59 61 60 60 59 59 60 61 61 61 61 61 60 58 57 56 55 54 54 53 51 50 48 47 45 43 42 41 41 41 41 41 41 40 39 38 36 34 33 33 33 32 32 33 32 31
25 27 28 30 32 34 35 38 42 44 47 45 37 30 28 28 29 29 27 26 25 23 19 15 13 12 12 11 11 11 13 14 15 17 18 21 24 27 32 37 42 47 53 57 60 60 60 60 60 60 61 61 62 62 61 59 58 57 56 55 55 53 52 51 49 48 45 44 43 41 41 42 41 41 41 40 39 38 37 37 36 35 34 33 34 35 33 34
27 29 31 32 34 36 37 39 43 46 48 46 37 31 31 31 31 29 28 27 26 21 17 16 16 15 14 13 11 10 10 10 10 10 11 12 14 18 22 27 32 38 43 49 54 58 60 61 61 61 61 61 62 62 61 60 59 58 57 56 55 54 53 52 50 48 47 46 44 42 41 41 40 40 40 39 38 38 38 38 38 36 35 35 35 35 34 34
29 31 32 34 35 37 39 40 43 46 49 47 39 32 33 34 32 30 28 28 25 19 17 17 17 16 16 14 11 11 12 13 13 12 9 8 8 10 14 19 25 30 35 40 46 52 56 59 61 62 61 61 61 61 61 60 60 59 58 57 56 55 54 52 50 49 48 46 45 44 43 41 40 39 40 40 40 40 39 38 38 37 36 36 35 35 34 32
31 32 34 35 37 38 40 41 44 46 49 49 41 35 36 35 33 30 29 28 24 18 15 15 15 15 15 14 14 17 17 16 15 13 10 7 7 7 6 10 18 24 29 33 38 43 50 55 58 61 62 61 60 60 60 60 60 59 59 58 56 55 54 52 50 50 48 46 45 44 43 42 41 40 39 40 40 40 40 39 39 38 36 35 35 34 34 35
32 33 34 36 37 39 41 42 44 46 49 50 44 37 37 38 35 31 29 27 23 17 12 12 14 15 16 16 17 18 17 14 13 13 10 7 6 5 3 2 9 18 24 27 31 36 41 47 53 57 59 60 60 60 60 60 61 60 59 57 55 54 54 53 51 50 48 47 45 43 42 41 41 40 39 38 37 37 37 38 38 37 36 34 34 33 32 32
32 34 35 37 38 39 41 42 44 46 49 51 47 39 38 40 37 34 32 29 27 22 16 14 15 15 16 16 15 15 14 14 14 12 9 6 5 4 3 4 1 9 19 24 26 29 34 39 45 50 54 57 59 59 58 58 57 58 58 57 56 55 54 53 51 49 48 46 45 43 41 39 38 38 38 37 37 35 34 35 35 35 35 33 33 32 30 25
32 34 35 37 39 40 42 43 44 46 49 51 50 42 39 40 37 34 33 31 28 23 18 14 13 13 13 12 11 11 12 16 16 15 12 8 4 3 3 3 6 2 10 20 23 25 29 33 38 43 47 52 56 57 57 55 54 54 55 55 55 55 53 51 49 48 47 45 44 43 41 39 37 36 35 36 36 35 34 33 32 31 31 32 34 35 33 29
32 34 35 37 39 40 42 43 44 46 48 51 52 46 41 40 37 32 30 26 23 20 17 15 15 16 16 14 12 11 13 16 19 20 19 15 9 4 3 3 3 4 4 12 20 23 26 29 32 36 41 45 48 52 55 53 52 52 52 52 52 52 52 50 48 47 46 45 44 43 41 39 37 35 34 33 34 34 34 32 31 30 30 32 35 37 37 36
33 34 36 37 39 41 42 44 45 46 48 52 53 48 42 41 39 34 30 26 23 22 21 21 21 21 20 19 17 15 16 17 19 19 18 18 16 11 4 2 1 4 6 7 13 20 23 25 26 29 34 39 40 44 51 52 51 51 48 49 50 51 51 49 47 46 45 45 44 43 41 39 37 35 33 32 33 33 34 34 34 35 36 36 37 38 38 38
34 34 36 38 39 41 43 45 46 46 48 51 52 49 44 42 41 38 34 31 29 29 28 28 28 27 26 24 22 20 20 20 19 17 16 17 17 16 12 4 4 8 8 8 9 15 21 22 23 25 29 34 36 37 43 47 49 49 47 46 47 49 49 48 47 45 45 44 44 42 40 39 37 35 34 34 33 33 34 35 36 37 38 39 39 38 38 38
34 34 35 37 39 40 42 44 46 47 48 50 52 51 46 43 43 41 37 34 33 32 31 32 31 29 27 26 24 24 22 21 19 15 14 15 14 15 15 7 7 13 13 9 11 15 20 22 23 25 27 30 33 34 36 41 44 45 44 43 43 45 46 46 46 45 44 43 43 41 40 39 38 36 35 34 34 33 34 34 35 36 36 37 38 39 40 40
34 34 35 37 38 39 41 43 45 46 46 47 51 53 48 43 42 42 39 35 32 30 30 30 30 28 28 27 26 25 24 22 20 17 14 12 14 16 14 11 11 15 14 12 15 19 21 24 26 26 29 30 32 31 31 35 40 42 40 38 38 40 41 42 42 43 43 42 41 40 39 39 38 37 36 34 33 33 33 33 33 33 34 34 36 37 39 39
33 34 34 36 38 39 41 43 44 44 44 45 48 52 51 45 41 41 37 33 31 29 29 30 29 29 30 29 28 26 24 22 20 21 19 15 16 19 19 20 21 20 21 21 24 28 28 29 30 30 32 33 31 27 25 26 31 37 37 35 33 33 33 35 37 38 39 40 41 40 40 39 37 36 35 34 33 33 32 31 30 31 33 35 36 37 38 39
33 34 34 35 37 39 41 42 44 44 43 43 45 49 51 47 42 40 35 30 29 29 28 29 29 30 32 32 31 29 26 24 23 24 26 22 20 20 20 25 29 31 32 34 37 38 37 34 33 33 33 31 28 22 21 20 20 27 33 33 29 26 25 27 31 34 35 36 38 39 39 38 36 35 35 34 34 33 32 31 30 30 31 32 33 33 34 34
33 33 34 35 36 38 40 41 43 44 42 42 44 47 49 48 44 39 33 30 31 31 30 30 31 32 34 35 35 32 29 29 28 27 29 27 25 23 21 22 27 31 33 36 40 40 37 35 34 35 33 30 29 25 23 23 17 17 24 27 25 24 23 23 24 26 28 29 32 35 36 35 34 34 34 33 33 33 32 32 31 29 28 27 27 27 28 28
33 33 34 34 35 37 39 41 42 43 42 42 44 47 48 49 48 41 36 38 38 34 33 32 33 34 35 37 37 33 32 33 31 31 32 31 30 27 25 26 27 30 32 33 37 38 36 35 34 34 31 30 31 29 26 26 22 18 20 23 23 20 19 18 17 18 22 24 26 29 32 33 34 34 32 30 29 30 31 31 31 30 28 28 29 29 29 30
32 33 33 33 34 35 37 39 41 41 41 40 44 46 46 48 49 45 44 47 45 39 36 35 33 34 35 37 37 35 34 34 35 36 35 34 34 29 27 30 32 34 33 31 36 40 38 38 36 33 32 32 30 28 27 26 23 21 22 22 22 20 17 16 14 14 18 21 22 24 26 27 29 30 29 27 26 27 28 28 28 29 30 31 32 32 32 33
31 32 32 32 33 33 35 37 39 40 39 39 42 44 45 46 47 49 54 55 50 45 41 37 34 34 35 34 35 36 35 34 36 40 39 39 37 30 27 32 35 37 35 34 37 40 38 35 32 31 34 33 29 27 27 23 18 19 22 23 23 21 19 18 16 15 17 18 18 19 19 20 22 24 24 25 26 27 27 28 29 30 32 32 32 33 33 34
30 31 31 31 31 32 33 35 37 38 37 37 40 42 43 44 45 52 59 59 55 50 45 41 39 37 35 30 31 35 36 36 37 39 41 42 39 32 30 33 37 37 36 37 38 37 33 28 26 28 31 30 27 25 23 18 15 18 21 21 20 20 19 19 17 16 16 16 15 16 17 19 20 21 22 24 25 26 27 28 29 30 30 31 31 32 33 34
29 30 30 31 31 31 32 33 34 36 36 35 38 40 40 42 47 54 58 57 57 54 49 47 44 41 39 35 33 32 33 36 39 39 41 42 39 36 33 33 32 30 32 36 37 36 35 32 33 36 34 31 30 29 26 23 22 22 22 20 17 17 18 18 17 15 14 13 13 15 17 18 19 20 21 23 23 24 26 27 27 28 28 29 30 31 32 32
27 29 29 30 30 30 31 31 31 33 34 33 36 39 38 41 49 54 54 54 54 53 53 52 49 46 43 40 38 34 31 32 35 37 38 38 38 38 36 32 29 26 28 31 34 39 42 39 40 41 37 34 32 29 28 28 27 25 23 22 18 17 18 17 17 15 12 12 12 12 14 15 16 18 20 21 22 23 24 25 26 27 28 28 29 29 29 29
26 27 28 28 29 30 31 31 31 31 31 32 35 36 36 42 50 50 50 52 51 51 53 53 52 50 46 43 41 38 34 33 32 33 32 31 32 35 36 35 32 29 28 29 32 37 41 40 39 37 35 34 30 26 23 22 22 21 20 20 18 18 19 16 14 13 13 12 12 13 14 15 16 18 19 20 22 22 23 24 24 25 25 25 25 26 26 27
24 25 26 27 28 29 30 30 30 30 30 30 31 32 36 43 47 47 48 49 49 50 51 51 52 52 50 49 46 42 39 37 35 32 30 28 29 32 33 33 33 32 28 27 31 35 37 38 37 34 33 32 29 25 21 18 17 15 14 14 13 12 14 14 13 13 14 15 15 16 16 16 17 18 19 19 20 20 20 20 20 21 21 21 21 21 21 20
22 23 24 25 27 28 29 29 29 30 32 30 27 31 38 42 43 44 45 46 46 47 48 48 49 50 51 51 50 48 46 42 38 35 33 33 34 33 32 31 32 32 29 28 30 31 32 34 33 30 30 29 27 24 21 17 16 13 11 11 9 8 9 10 11 12 14 16 16 16 16 16 17 17 17 17 17 16 16 15 15 14 13 13 12 11 10 8
21 22 23 24 26 27 28 29 29 32 34 30 26 33 38 39 40 41 42 42 43 44 44 45 46 48 49 50 50 50 49 47 44 41 39 39 39 38 36 33 31 30 29 28 27 26 26 28 28 27 26 24 22 21 19 16 14 12 10 9 8 7 8 8 7 7 7 9 9 10 10 10 9 9 9 9 8 8 8 8 7 6 5 4 3 2 1 1
20 20 21 23 24 25 27 27 28 33 33 29 29 34 37 37 39 39 39 40 40 40 41 42 45 46 47 47 48 48 48 49 48 47 46 45 44 42 38 36 34 31 30 28 27 26 24 24 25 24 23 21 20 18 16 14 13 12 10 8 8 8 8 8 8 7 7 6 6 6 6 6 6 7 7 7 7 8 8 8 7 7 7 7 7 7 6 4
18 19 20 21 22 25 26 25 27 32 30 28 31 34 35 36 37 37 38 38 37 38 39 40 42 43 44 44 45 46 46 47 48 48 50 50 49 47 43 41 39 36 35 33 32 30 28 27 28 27 25 24 22 21 20 19 18 18 17 16 16 16 16 16 16 15 15 15 15 15 15 15 15 15 15 14 14 13 13 13 12 11 10 8 7 5 3 2
17 18 19 20 21 23 23 23 28 29 27 28 32 33 34 35 35 35 36 36 37 37 38 39 39 40 41 41 42 43 44 45 46 46 48 50 50 49 48 46 44 43 41 40 38 37 35 34 34 33 31 30 29 29 28 27 27 26 26 26 25 25 24 24 24 23 23 23 22 22 21 21 20 19 18 17 15 14 13 11 9 8 6 5 3 2 2 4
16 17 18 18 19 21 21 23 26 26 25 28 30 31 33 33 33 34 34 35 36 36 37 37 37 38 38 39 39 40 41 42 43 44 46 47 47 48 47 46 46 45 44 44 43 42 41 40 40 39 38 37 37 36 35 34 33 33 32 31 30 29 29 28 27 26 25 24 23 22 21 20 18 16 15 13 12 11 9 8 6 5 5 4 5 5 6 8
14 16 17 17 18 20 20 22 24 24 25 27 28 29 31 31 32 33 33 33 34 35 36 36 36 37 37 37 37 37 38 39 40 41 42 43 44 44 44 44 44 43 43 42 42 41 41 41 40 40 39 38 37 36 35 34 33 32 31 30 29 28 27 26 25 24 22 21 20 19 18 16 15 14 12 11 10 9 8 7 6 6 6 6 7 8 9 10
13 14 15 15 17 18 19 20 22 23 24 25 26 27 28 29 30 31 31 31 32 32 33 34 35 35 36 36 36 36 36 37 37 38 39 39 40 40 40 41 40 40 40 39 39 38 38 38 37 36 35 35 34 33 32 31 30 29 28 27 26 25 24 23 22 20 19 18 17 16 15 14 13 12 11 10 9 8 8 7 7 8 8 9 10 11 11 13
12 13 14 14 15 16 17 19 20 22 23 23 24 25 26 26 27 28 29 29 30 30 31 31 32 33 34 34 34 34 35 35 35 36 36 36 36 36 37 36 36 36 36 36 35 35 34 34 34 33 32 31 31 30 29 28 27 26 25 24 23 22 21 20 19 18 17 16 15 14 13 12 11 10 10 9 8 8 8 9 9 10 10 11 12 13 13 14
11 12 13 13 14 15 16 18 19 20 22 22 23 23 24 24 25 25 26 27 27 28 28 29 29 29 31 31 31 32 33 33 33 33 33 33 33 33 33 33 33 33 33 33 32 32 31 31 31 30 29 29 28 27 26 26 25 24 23 22 21 20 19 18 17 16 15 14 13 12 11 11 10 10 10 10 10 10 10 11 11 12 12 12 12 13 14 15
9 10 11 12 13 14 15 16 17 19 20 21 22 22 22 22 23 23 24 24 25 26 26 27 27 27 28 28 29 29 30 31 31 31 31 31 31 31 30 30 30 30 30 30 29 29 29 28 28 27 27 26 26 25 24 23 22 22 21 20 19 18 17 17 16 15 14 13 12 12 11 11 11 11 11 11 11 11 11 11 12 13 12 12 12 13 14 15
7 7 8 9 10 11 12 14 15 16 17 18 19 20 21 21 21 21 22 22 22 23 24 24 25 25 25 26 26 26 27 28 28 28 29 29 29 29 28 28 27 27 27 27 26 26 26 25 25 25 24 24 23 22 22 21 20 19 19 18 17 17 16 15 15 14 14 13 12 12 12 11 12 12 12 12 12 13 12 12 12 13 13 12 12 13 14 16
5 6 7 8 8 9 10 11 12 14 15 16 17 17 18 19 19 20 20 20 20 21 21 22 22 23 23 23 24 24 25 25 25 26 26 27 27 27 27 26 26 25 25 24 24 24 23 23 23 22 21 21 20 20 19 19 18 18 17 16 16 15 15 14 14 14 13 13 12 12 12 11 11 11 11 10 11 12 13 13 13 14 14 13 13 14 16 18
3 4 5 6 7 8 8 9 10 11 12 13 14 15 16 16 17 18 18 18 18 19 19 19 20 21 21 21 21 22 22 22 23 23 24 24 24 24 24 24 24 24 24 23 22 22 21 21 20 20 19 18 18 18 17 17 16 16 15 15 14 13 13 13 13 13 12 12 11 10 10 9 10 10 10 10 10 11 13 14 15 15 15 15 15 16 18 21
3 3 4 5 5 6 7 8 8 8 9 10 11 13 14 14 14 15 16 16 16 16 16 17 17 17 18 19 19 19 19 19 20 20 21 21 22 22 22 22 22 22 22 21 21 20 20 20 19 18 18 17 17 17 16 16 15 15 14 14 13 12 11 11 11 10 10 10 10 9 8 8 8 10 11 11 12 13 15 16 17 17 16 15 16 18 21 23
5 5 5 4 4 5 6 7 8 8 8 8 8 9 11 12 13 14 14 14 14 14 14 15 14 15 15 15 16 16 16 16 17 17 18 18 19 19 19 19 19 19 19 19 19 18 18 17 17 17 17 16 16 16 15 15 14 14 13 13 12 12 11 11 10 10 10 10 10 10 9 10 10 11 12 12 13 14 16 17 19 19 18 17 19 22 24 25
8 7 7 6 6 5 5 5 6 7 8 8 7 7 7 8 10 12 12 13 13 13 13 13 13 13 13 12 13 13 13 14 14 15 15 15 16 16 16 16 16 16 16 16 16 16 15 15 14 14 14 14 14 13 13 12 12 12 13 13 13 13 13 12 13 13 14 14 14 13 13 13 13 13 14 14 15 17 18 20 20 19 20 20 22 24 25 26
Wind_Direction
300 300 300 300 299 299 299 298 297 296 294 292 290 288 286 284 282 280 278 276 275 273 271 269 268 266 264 262 261 259 257 256 254 253 252 251 250 248 247 246 245 244 242 240 240 241 240 239 237 237 237 237 237 237 237 237 237 237 237 236 235 233 231 230 230 230 232 234 235 235 233 232 233 233 233 235 236 235 234 235 236 237 237 239 241 243 244 247
308 308 308 307 306 305 304 302 300 298 296 294 292 290 288 286 283 281 279 277 275 274 272 270 268 266 265 263 261 259 258 256 255 253 252 251 249 248 247 246 245 243 242 240 238 238 238 237 236 235 235 235 236 236 236 236 236 236 236 237 236 234 232 230 229 228 228 231 234 235 237 235 233 234 234 235 237 236 239 242 241 239 239 240 243 245 250 254
316 315 314 313 311 309 307 306 304 302 301 298 296 294 292 289 287 285 283 280 278 276 274 272 270 268 266 264 262 260 258 257 255 253 252 250 249 247 246 245 244 243 241 240 238 237 236 236 235 234 233 233 234 234 234 235 235 235 235 236 235 234 232 229 228 227 227 228 231 233 236 237 234 234 236 236 237 238 239 240 240 241 242 244 247 249 252 256
321 321 320 319 317 316 314 312 311 309 307 304 302 300 297 294 292 289 286 284 281 278 276 273 271 269 267 265 264 262 260 258 256 254 252 251 249 247 246 244 243 242 241 239 238 236 235 234 234 233 232 231 231 232 232 233 233 234 234 233 233 232 231 229 227 226 226 226 228 230 232 234 236 236 237 237 235 237 238 237 238 241 245 247 248 249 251 252
330 329 327 326 324 322 321 319 318 316 314 312 309 305 302 299 296 292 289 286 283 280 277 275 272 270 268 266 265 263 261 259 258 256 254 252 250 248 246 244 243 242 240 239 237 236 235 233 233 232 231 230 230 230 231 231 231 232 232 231 231 230 230 229 227 226 225 225 226 229 230 230 233 234 236 238 237 236 238 238 238 240 244 247 248 249 249 251
339 337 335 334 332 331 330 328 327 325 322 319 315 311 307 302 298 295 291 288 285 282 279 276 273 271 269 267 265 264 262 260 258 257 255 253 251 249 247 245 244 242 240 238 237 235 234 233 232 231 230 229 229 228 229 229 230 230 230 229 229 228 228 228 227 225 224 225 225 227 229 229 231 231 230 234 238 239 240 240 240 242 244 247 248 248 248 249
347 347 345 344 343 342 341 340 338 335 331 326 322 318 313 308 303 298 294 290 286 283 280 277 274 271 269 267 265 263 262 260 258 256 255 253 251 249 248 246 244 243 241 239 237 235 234 232 231 230 230 229 228 227 227 227 228 228 228 228 228 227 227 227 227 225 223 224 225 226 228 230 232 234 232 232 235 238 242 243 242 242 245 246 248 249 249 248
358 357 355 354 353 352 351 350 347 343 339 335 331 327 322 316 311 307 303 299 295 291 287 282 278 275 271 268 265 263 260 259 257 256 254 253 252 250 248 246 244 243 241 240 238 236 234 232 231 230 229 228 227 226 226 226 226 226 227 227 226 226 226 227 226 226 223 223 224 225 227 229 231 233 233 232 234 235 238 243 243 242 244 245 246 248 250 251
8 7 5 4 3 1 359 357 354 351 346 342 338 335 329 324 321 317 313 310 306 302 298 294 290 285 280 275 270 266 262 259 257 255 253 252 251 250 249 247 245 243 241 239 238 237 235 233 232 230 229 228 227 226 225 225 225 225 225 225 225 225 225 226 226 226 224 223 223 224 227 229 230 232 233 233 233 234 235 239 243 245 247 248 249 249 250 251
16 14 13 11 9 6 4 3 360 356 352 348 345 341 336 332 328 323 319 316 312 308 303 299 295 292 288 284 279 275 269 264 260 257 254 251 249 248 247 246 245 243 241 239 237 236 235 233 232 230 229 227 226 226 225 224 224 224 224 224 224 225 225 226 226 226 226 225 223 224 225 227 229 231 233 234 234 235 237 240 243 246 249 250 249 249 249 251
21 19 16 14 11 9 8 6 3 0 357 354 350 346 342 338 332 328 326 323 319 313 307 301 296 291 288 285 284 281 277 272 267 263 258 254 250 247 245 243 243 242 241 239 237 236 234 233 231 230 229 227 226 225 225 224 223 223 223 224 223 224 225 225 225 226 225 225 224 225 225 226 228 230 232 233 234 236 237 241 244 244 244 247 249 249 248 250
23 20 17 15 13 11 10 8 6 4 1 358 354 351 347 341 338 337 336 333 329 323 315 309 302 296 293 290 287 284 282 279 276 272 267 261 256 251 246 243 241 239 239 237 236 234 233 232 231 229 228 227 226 225 224 223 222 222 222 223 223 223 224 224 225 225 225 225 224 225 226 226 227 229 230 232 233 234 234 235 239 241 239 241 247 249 248 250
24 21 18 16 14 12 11 10 8 7 5 2 359 355 350 348 348 348 346 343 339 335 335 338 341 342 338 327 321 316 310 302 297 291 283 274 264 256 250 245 240 238 236 235 233 232 231 230 229 228 227 226 225 225 224 223 222 221 221 221 223 223 223 224 224 225 226 225 224 224 225 226 226 227 229 231 232 234 233 232 235 239 240 240 245 250 251 253
24 22 19 16 15 13 12 11 10 9 8 6 3 0 356 356 357 356 354 352 351 357 12 23 25 23 17 8 1 352 342 338 336 326 308 293 278 265 255 246 241 236 234 233 231 229 228 227 226 226 226 225 224 224 223 222 221 220 219 219 220 221 223 223 223 224 225 226 225 224 224 225 228 229 229 230 232 234 235 234 235 238 241 244 247 251 254 255
24 22 20 18 16 15 13 12 11 11 11 9 7 5 3 3 2 2 2 1 3 18 36 37 34 33 27 18 8 4 4 360 351 342 331 323 311 286 262 247 239 235 231 229 228 227 226 224 224 223 223 223 223 223 222 221 220 220 219 218 218 219 221 222 223 224 225 226 226 225 224 224 225 228 230 230 230 232 234 235 237 239 242 245 247 250 252 253
23 22 21 19 17 16 15 14 13 13 13 12 10 10 8 8 7 7 8 10 12 27 42 36 31 31 23 15 14 14 11 360 345 336 328 328 333 323 285 251 237 232 228 225 224 223 223 222 221 221 221 221 221 221 221 219 219 219 218 219 219 219 219 219 221 223 224 225 226 226 227 225 224 225 227 229 230 230 232 234 236 239 240 243 245 249 253 255
23 22 21 20 19 17 16 15 15 14 15 15 14 14 12 10 10 11 14 17 19 27 33 17 11 14 7 5 13 11 3 357 350 342 331 316 319 342 4 304 233 225 222 220 220 219 219 218 218 218 218 218 218 219 219 219 218 217 217 217 217 219 220 219 219 221 222 223 225 226 228 227 226 225 225 228 230 230 232 234 236 237 238 239 243 248 254 257
24 23 22 21 20 19 18 17 16 15 16 17 17 17 17 14 12 13 14 17 21 24 17 359 353 356 353 352 355 352 355 4 6 360 350 329 308 323 359 20 30 214 214 212 213 213 214 214 214 214 214 215 215 216 217 219 220 220 219 217 216 217 219 220 220 220 221 222 224 226 226 227 227 226 225 226 229 230 232 234 235 237 237 238 239 239 239 238
25 24 23 22 21 20 19 19 17 16 17 18 19 19 21 20 17 17 17 17 20 20 14 3 356 357 358 0 359 359 12 21 26 31 25 9 332 309 308 357 33 84 198 204 205 205 207 208 209 209 209 211 212 213 214 216 218 219 220 219 218 218 218 219 220 221 222 223 225 227 226 226 227 227 227 227 229 230 231 232 231 233 234 236 236 234 232 232
27 25 24 24 23 21 21 20 19 18 18 20 21 20 22 24 23 25 26 23 22 22 25 27 27 30 32 39 45 40 35 31 33 38 35 26 15 349 272 284 19 64 137 186 195 198 199 201 203 203 204 206 208 211 211 211 213 215 217 217 218 219 219 218 219 220 222 223 225 227 228 228 228 228 229 230 231 231 229 229 230 231 232 235 236 237 239 241
28 27 26 26 24 22 22 22 21 19 19 21 21 21 24 25 26 29 31 31 32 35 40 45 47 47 46 49 52 49 43 38 34 32 31 28 22 15 353 286 153 106 98 135 177 191 193 193 193 194 197 198 198 204 208 208 209 211 213 214 215 216 218 218 218 219 221 223 225 226 228 230 230 230 229 229 230 231 231 232 234 235 235 237 239 240 243 246
29 28 28 28 27 25 23 23 22 20 21 22 22 23 25 26 26 29 31 32 38 44 50 54 55 54 53 53 51 46 39 34 30 26 26 27 23 21 16 2 168 143 121 111 136 172 184 182 179 181 187 190 187 193 203 204 205 207 208 211 213 214 216 217 217 218 219 222 225 226 228 230 231 231 230 230 231 231 233 235 237 239 240 242 243 246 249 253
30 29 29 30 29 28 27 26 25 23 22 23 23 25 27 27 27 29 32 36 42 48 53 55 54 54 53 51 46 39 32 29 29 27 29 32 31 26 21 31 145 146 140 128 116 142 168 168 162 167 172 179 181 184 194 199 200 203 204 206 210 213 214 216 217 217 218 221 224 225 227 229 230 230 231 232 233 234 236 238 241 243 245 247 249 251 252 255
31 30 30 31 31 30 30 30 28 26 25 25 25 27 29 30 30 30 33 40 48 54 56 54 51 49 47 44 40 35 31 32 33 33 35 43 51 49 45 65 111 135 142 140 125 130 148 150 146 153 157 161 171 178 187 194 196 198 199 201 207 211 213 215 217 219 219 220 222 224 225 227 228 230 232 234 236 238 240 242 245 247 248 250 251 252 254 255
31 31 31 31 32 32 32 33 31 29 28 28 30 30 30 33 35 34 36 42 51 56 56 53 50 48 45 42 38 34 34 37 38 40 45 55 66 68 73 84 96 114 125 126 123 123 128 131 133 141 148 150 159 172 177 184 192 193 192 194 200 207 212 215 216 218 221 222 223 223 225 226 227 229 232 234 236 238 241 243 246 249 249 249 250 252 255 258
31 31 32 33 33 33 33 34 33 31 30 32 33 34 34 36 38 38 41 49 57 60 59 56 53 49 46 42 39 38 41 46 47 49 54 62 76 78 79 87 93 101 109 112 114 116 116 119 127 135 140 141 143 153 157 156 173 189 189 189 190 195 203 212 217 218 220 224 226 226 226 227 227 228 231 234 236 238 240 241 243 246 246 246 249 252 256 259
32 32 33 34 34 35 35 35 34 31 30 33 35 37 37 39 42 43 47 58 64 64 61 58 54 51 48 45 43 44 48 52 54 57 60 66 77 83 82 84 90 96 102 105 109 112 114 120 130 134 136 134 128 127 131 128 136 170 183 181 179 181 187 198 210 216 220 223 228 230 230 230 228 229 232 235 238 239 239 240 241 242 243 246 250 253 257 261
33 33 33 34 35 36 36 37 36 33 31 32 36 38 38 40 43 44 49 58 61 60 59 56 52 50 49 48 48 52 55 57 59 62 64 67 74 83 87 86 90 98 103 105 108 112 117 125 130 131 134 136 126 118 117 117 120 140 162 166 166 169 173 182 192 204 214 218 225 230 231 232 233 233 233 235 238 240 240 241 243 243 245 251 256 259 261 262
34 34 33 34 36 37 37 38 38 36 32 33 37 39 39 40 43 45 49 56 57 56 55 52 49 49 51 50 51 56 59 60 61 62 65 69 75 84 89 87 89 95 98 105 110 114 120 125 125 125 131 136 127 115 113 112 115 132 146 148 151 152 153 167 182 192 204 212 219 226 229 234 239 241 241 243 247 247 246 246 247 247 250 256 260 263 264 265
34 35 34 35 36 37 39 39 40 38 34 35 38 40 41 41 43 47 51 53 54 54 54 53 51 51 52 53 53 57 60 61 61 62 67 72 78 84 85 85 91 94 96 103 107 109 114 115 117 123 127 129 125 116 115 114 117 134 141 141 147 151 157 173 185 190 197 207 216 223 225 230 238 243 245 247 249 249 250 251 251 252 255 259 262 264 265 266
34 35 35 35 36 37 39 40 42 41 36 36 40 42 43 44 44 48 51 52 53 53 53 54 54 54 55 56 56 58 60 62 62 63 67 71 77 81 80 85 95 96 95 99 101 102 106 108 112 120 123 124 125 124 123 126 136 143 145 149 155 161 167 179 186 191 199 206 214 219 221 225 230 237 240 242 245 247 251 253 254 256 258 261 263 265 266 268
35 35 35 35 36 37 39 40 42 43 38 37 42 43 43 46 47 48 50 52 52 52 53 54 55 55 56 56 58 60 62 63 64 65 66 69 73 77 79 84 93 92 88 93 98 99 103 108 110 111 112 114 118 123 126 133 143 149 153 156 162 170 174 181 186 190 198 203 209 216 222 227 230 235 240 243 245 248 251 254 257 260 262 264 266 268 271 273
37 36 35 35 36 37 39 40 42 44 41 37 42 44 43 47 49 49 49 51 52 52 53 54 54 54 55 56 58 61 62 63 65 66 66 68 70 73 75 79 84 83 83 91 99 99 100 104 106 106 107 108 113 121 124 127 132 140 146 147 151 166 171 175 182 188 197 203 210 219 227 235 238 242 246 249 250 253 256 259 262 264 266 268 270 271 273 274
38 38 37 36 37 38 39 40 41 44 44 39 39 43 44 48 50 50 50 51 52 52 53 54 55 56 57 57 58 60 61 63 64 64 66 68 69 69 70 72 76 78 84 93 99 102 102 102 103 103 105 107 113 124 127 123 122 128 137 141 148 163 172 177 183 193 205 214 225 236 243 249 253 256 258 259 260 261 263 264 265 266 267 268 268 268 267 268
39 39 40 38 39 40 39 41 41 43 46 40 35 41 46 49 51 51 51 52 52 53 53 54 55 56 58 58 60 61 61 62 63 64 68 72 72 71 71 72 74 78 86 93 98 102 103 101 100 101 102 104 108 117 125 126 124 126 133 142 148 160 179 193 202 213 224 232 241 248 254 259 259 261 263 262 262 261 261 262 261 261 261 260 260 260 262 265
40 41 42 41 41 42 41 42 42 44 47 40 32 42 48 50 51 52 52 52 53 53 54 54 55 56 57 59 60 61 61 63 64 66 70 74 76 77 78 78 78 80 84 90 95 100 104 102 102 102 103 105 108 115 126 132 134 138 144 152 158 165 185 199 208 223 232 239 245 250 254 257 259 259 258 257 255 253 252 250 249 249 248 249 251 254 260 266
40 41 44 45 43 43 43 42 42 45 46 40 39 47 50 51 52 52 53 53 53 54 55 57 58 58 57 58 60 61 63 64 66 68 69 73 76 78 80 83 84 83 83 86 91 97 104 106 106 104 104 105 107 114 125 131 136 144 153 163 172 179 187 188 190 206 220 229 237 241 244 246 248 245 239 235 229 223 218 216 214 210 204 201 189 162 131 109
39 39 43 46 45 45 45 42 43 47 46 42 45 50 52 53 54 54 54 54 54 55 56 57 58 58 58 59 60 62 63 65 67 68 70 72 74 77 79 83 86 86 85 85 87 90 96 100 101 99 98 98 99 104 111 115 120 124 127 134 139 137 139 140 137 136 141 148 150 149 151 145 136 135 135 135 136 136 134 129 123 117 110 104 100 97 93 87
39 38 40 44 46 49 47 44 46 48 45 44 48 51 52 54 55 56 56 56 56 56 56 56 57 58 59 60 61 63 65 66 67 69 71 72 74 76 78 80 82 84 85 85 87 87 89 91 94 94 94 95 96 97 99 101 103 104 106 109 111 111 112 113 113 113 114 115 114 112 109 107 106 105 104 105 104 104 103 102 100 99 98 97 96 92 85 62
37 38 39 40 44 49 49 48 50 48 45 47 50 50 51 53 55 57 58 58 58 57 57 57 58 59 60 61 63 65 66 67 68 69 71 72 74 76 77 79 80 81 83 84 85 86 87 88 90 91 92 93 93 94 95 96 97 98 99 100 101 101 102 102 102 102 102 102 101 100 99 98 97 97 97 97 97 97 97 97 97 96 92 87 72 38 353 327
33 38 41 39 40 46 49 51 52 51 50 51 50 50 51 51 53 55 57 58 59 59 58 58 59 59 60 61 63 64 66 68 69 70 71 72 74 75 76 78 79 81 82 83 84 85 87 87 88 89 90 90 90 91 92 92 92 93 93 94 95 95 96 96 96 96 96 96 95 95 95 94 92 91 90 90 88 87 83 78 72 62 45 28 7 350 339 331
29 35 40 41 42 44 47 51 54 54 55 53 51 51 51 51 51 52 54 57 58 60 60 60 60 60 60 61 62 63 65 67 69 70 72 73 74 76 77 79 80 81 82 84 85 86 87 88 89 90 90 91 91 92 92 92 93 93 93 94 94 94 94 94 94 93 92 92 91 90 90 88 85 81 78 75 71 66 60 49 40 28 15 5 355 346 340 333
29 31 34 39 44 45 46 49 53 54 55 55 54 53 52 51 52 51 52 53 55 58 60 61 61 61 61 61 61 62 63 65 67 68 70 71 73 75 77 79 80 81 83 84 85 86 88 88 89 90 91 91 92 92 93 93 93 93 93 93 92 92 92 91 91 90 89 88 87 85 84 82 80 76 71 66 59 51 41 31 24 14 6 0 353 347 343 338
28 29 29 32 38 44 47 49 51 52 54 55 55 55 54 53 53 52 52 52 52 54 56 59 61 62 62 62 62 62 62 63 64 65 67 68 70 72 74 76 78 79 80 82 83 84 85 86 87 87 87 88 88 88 88 88 88 88 88 87 87 86 86 85 84 83 83 81 79 77 76 74 72 66 60 53 46 37 25 16 9 4 359 355 350 345 341 338
26 27 28 29 30 35 41 46 48 50 50 51 53 54 55 55 54 54 54 53 52 52 52 54 57 59 61 62 63 62 62 62 63 64 65 66 67 69 70 72 74 75 77 78 79 80 81 81 82 83 83 83 83 82 82 81 81 80 79 79 78 77 77 76 74 73 71 70 67 63 61 59 55 49 40 32 25 19 13 4 358 354 352 349 345 340 336 332
25 26 27 28 29 29 32 38 43 48 49 48 49 51 52 53 53 53 54 54 54 53 53 52 53 55 58 61 62 63 63 63 64 64 65 65 66 67 67 68 69 70 71 72 73 74 75 76 76 76 77 76 76 76 75 74 73 72 71 70 68 66 65 64 62 60 58 55 52 49 45 40 35 32 26 18 11 6 2 355 348 344 342 340 338 332 328 324
23 22 23 25 27 28 28 31 34 40 45 47 47 48 48 49 50 51 52 52 53 54 54 54 54 54 56 59 61 62 63 64 64 64 65 65 65 65 65 66 66 66 66 67 68 68 68 69 69 68 68 68 68 67 67 66 65 64 62 61 59 57 55 52 50 47 45 41 37 38 39 30 21 17 13 7 1 355 350 345 339 334 331 329 327 324 319 316
15 16 17 17 19 21 25 27 28 30 34 38 42 44 46 46 47 48 49 50 52 52 53 54 55 55 56 57 59 62 63 63 63 64 64 64 65 65 65 65 64 64 64 64 64 64 64 64 64 63 63 62 62 62 61 61 60 59 58 56 54 52 49 44 39 35 34 32 26 28 32 25 11 6 2 356 350 341 334 330 325 322 320 320 319 317 314 311
352 7 11 9 9 12 14 19 23 26 26 27 29 33 37 41 42 44 45 47 49 50 50 52 53 54 56 57 58 61 62 63 64 64 64 64 64 64 64 63 63 63 63 63 62 62 62 62 61 60 60 59 59 58 57 57 57 56 55 54 52 50 46 41 34 26 24 27 24 21 23 15 0 352 347 341 335 327 320 317 315 314 316 318 318 317 313 308
313 338 349 356 2 4 4 5 9 17 21 23 22 21 23 27 30 36 39 41 44 46 47 49 50 51 53 55 56 58 60 61 63 65 65 65 64 63 63 62 62 62 62 62 62 61 61 61 60 58 58 57 56 56 54 53 53 52 52 51 50 48 44 41 35 23 16 16 15 12 7 358 349 341 335 330 327 321 316 312 310 311 315 318 319 316 311 307
293 307 319 331 344 353 356 356 356 359 5 12 17 18 16 14 16 20 24 29 34 37 40 43 45 47 49 51 53 54 55 56 58 59 60 61 61 61 60 61 61 62 62 62 62 61 61 61 59 58 57 57 56 55 53 51 49 48 47 44 42 41 39 36 29 18 12 7 3 2 357 348 343 339 332 329 326 320 315 309 306 308 314 319 318 313 309 307
285 293 303 311 318 329 338 344 348 349 349 350 356 6 12 12 9 8 9 13 17 22 28 32 35 38 40 42 46 48 50 50 51 51 51 52 53 53 53 53 53 54 57 58 59 59 58 57 56 54 54 53 53 52 51 48 45 44 42 37 32 29 27 27 21 10 5 2 357 354 352 346 341 338 334 330 327 323 316 310 309 314 320 321 318 314 311 311
Height
5730 5729 5727 5726 5724 5723 5721 5719 5717 5716 5714 5712 5710 5708 5706 5704 5703 5701 5700 5698 5697 5696 5695 5694 5693 5693 5692 5692 5692 5693 5694 5694 5695 5697 5698 5700 5702 5704 5706 5708 5710 5712 5716 5718 5720 5723 5725 5728 5731 5733 5735 5738 5741 5743 5746 5749 5752 5754 5757 5760 5764 5768 5772 5774 5776 5778 5780 5781 5782 5784 5786 5788 5790 5791 5793 5794 5796 5799 5801 5802 5804 5805 5806 5808 5810 5812 5813 5815
5729 5727 5725 5724 5722 5720 5718 5716 5715 5713 5710 5708 5706 5704 5701 5699 5698 5696 5694 5693 5691 5690 5689 5688 5686 5686 5685 5685 5685 5686 5686 5687 5688 5689 5691 5692 5694 5696 5698 5701 5702 5704 5708 5711 5714 5717 5719 5722 5725 5727 5729 5732 5735 5738 5741 5744 5747 5750 5753 5757 5761 5764 5767 5770 5772 5775 5777 5778 5779 5781 5783 5786 5788 5789 5791 5792 5794 5796 5798 5799 5801 5803 5804 5806 5808 5810 5811 5813
5727 5725 5724 5722 5720 5718 5716 5714 5712 5710 5707 5705 5702 5700 5697 5695 5693 5691 5689 5687 5685 5684 5683 5681 5680 5678 5678 5677 5677 5678 5679 5679 5681 5682 5683 5685 5686 5689 5691 5693 5695 5697 5701 5704 5707 5710 5712 5715 5718 5721 5723 5726 5729 5732 5736 5739 5742 5745 5749 5752 5756 5760 5763 5766 5768 5771 5773 5775 5776 5778 5780 5782 5784 5786 5788 5790 5792 5794 5795 5797 5799 5800 5802 5804 5806 5808 5809 5810
5725 5724 5722 5720 5718 5716 5714 5712 5710 5707 5704 5702 5699 5696 5693 5691 5688 5686 5683 5681 5679 5678 5676 5674 5673 5672 5671 5670 5670 5670 5671 5672 5673 5674 5676 5677 5679 5681 5683 5686 5687 5690 5693 5696 5700 5703 5706 5709 5712 5715 5718 5721 5724 5727 5731 5734 5737 5740 5744 5748 5752 5755 5758 5761 5764 5767 5769 5772 5774 5775 5777 5780 5781 5784 5785 5787 5790 5791 5792 5794 5796 5797 5799 5801 5803 5805 5807 5808
5724 5722 5721 5719 5717 5715 5712 5710 5707 5705 5702 5699 5696 5692 5689 5686 5684 5681 5678 5675 5673 5671 5669 5667 5666 5664 5663 5663 5663 5663 5664 5664 5664 5666 5667 5669 5671 5673 5675 5678 5680 5682 5686 5689 5692 5696 5699 5703 5706 5709 5712 5716 5719 5722 5726 5729 5732 5735 5739 5743 5747 5751 5754 5756 5759 5763 5765 5768 5771 5772 5775 5778 5779 5781 5784 5785 5787 5788 5790 5792 5794 5795 5796 5798 5800 5802 5804 5805
5723 5722 5720 5718 5716 5714 5711 5709 5706 5703 5700 5696 5693 5689 5685 5682 5678 5675 5672 5668 5666 5663 5661 5660 5658 5656 5655 5655 5655 5655 5656 5656 5657 5658 5658 5659 5662 5664 5667 5670 5672 5674 5678 5681 5685 5689 5692 5696 5700 5703 5707 5711 5714 5718 5721 5724 5727 5731 5735 5739 5742 5746 5749 5752 5755 5758 5762 5765 5768 5769 5772 5774 5776 5778 5781 5783 5784 5785 5787 5789 5791 5793 5794 5796 5797 5799 5801 5803
5723 5721 5719 5717 5715 5713 5710 5708 5704 5701 5697 5693 5689 5685 5681 5676 5672 5668 5665 5661 5658 5655 5653 5651 5649 5648 5647 5647 5646 5647 5647 5647 5648 5649 5649 5651 5653 5656 5658 5661 5664 5666 5670 5674 5678 5681 5685 5689 5693 5697 5701 5705 5709 5712 5716 5719 5722 5726 5731 5735 5738 5742 5744 5747 5750 5754 5758 5762 5764 5767 5769 5771 5773 5776 5779 5781 5782 5784 5786 5787 5789 5791 5792 5793 5795 5796 5798 5800
5722 5720 5718 5716 5714 5712 5709 5706 5703 5699 5694 5689 5685 5680 5675 5671 5666 5662 5658 5654 5651 5648 5645 5643 5641 5639 5638 5638 5637 5637 5637 5637 5639 5640 5641 5642 5645 5647 5650 5653 5655 5658 5662 5666 5670 5674 5678 5682 5686 5690 5695 5699 5703 5707 5710 5713 5717 5722 5726 5730 5734 5737 5740 5743 5746 5750 5754 5758 5761 5764 5766 5768 5771 5774 5776 5778 5780 5782 5784 5785 5787 5788 5789 5791 5793 5794 5795 5796
5722 5720 5718 5716 5714 5711 5708 5704 5700 5696 5691 5686 5681 5675 5670 5666 5662 5658 5654 5650 5646 5643 5640 5637 5634 5633 5631 5630 5629 5628 5628 5628 5629 5630 5632 5633 5636 5639 5641 5644 5646 5649 5653 5658 5662 5666 5671 5675 5679 5684 5688 5693 5697 5701 5704 5707 5712 5718 5722 5725 5730 5733 5736 5739 5743 5747 5751 5754 5758 5761 5763 5766 5769 5771 5772 5774 5777 5779 5782 5783 5785 5786 5788 5789 5791 5792 5793 5794
5722 5720 5718 5715 5713 5710 5706 5702 5698 5693 5688 5682 5677 5672 5667 5663 5659 5655 5651 5647 5643 5639 5636 5633 5630 5628 5626 5624 5623 5622 5621 5621 5621 5622 5623 5624 5627 5630 5632 5634 5637 5641 5645 5649 5654 5658 5663 5668 5672 5677 5681 5686 5691 5694 5697 5702 5709 5714 5717 5722 5726 5730 5733 5736 5740 5744 5747 5751 5755 5758 5760 5763 5765 5767 5769 5772 5775 5777 5779 5781 5783 5785 5786 5787 5788 5789 5791 5792
5722 5720 5717 5714 5711 5708 5704 5700 5696 5691 5685 5679 5673 5669 5665 5661 5656 5652 5648 5644 5640 5636 5633 5630 5627 5624 5622 5620 5619 5617 5616 5616 5615 5615 5616 5617 5619 5621 5623 5625 5628 5632 5636 5641 5646 5651 5656 5660 5664 5670 5674 5679 5684 5687 5691 5698 5705 5709 5714 5718 5722 5726 5729 5733 5736 5740 5744 5748 5752 5755 5757 5760 5762 5764 5766 5769 5772 5775 5777 5779 5781 5782 5784 5785 5785 5786 5788 5790
5722 5719 5716 5713 5710 5706 5703 5699 5694 5689 5683 5677 5671 5666 5663 5659 5654 5649 5645 5641 5637 5633 5629 5626 5623 5621 5619 5617 5616 5614 5613 5612 5611 5611 5611 5611 5612 5613 5615 5617 5620 5623 5626 5632 5638 5643 5648 5652 5657 5662 5666 5672 5677 5680 5685 5694 5700 5705 5710 5714 5718 5722 5726 5729 5733 5736 5740 5745 5748 5752 5754 5756 5759 5761 5764 5767 5769 5771 5774 5777 5779 5779 5781 5783 5783 5784 5786 5787
5722 5719 5716 5712 5709 5705 5701 5697 5692 5687 5681 5675 5669 5665 5661 5657 5652 5647 5642 5638 5634 5630 5626 5623 5621 5619 5617 5615 5613 5612 5611 5610 5609 5608 5607 5607 5607 5608 5609 5610 5612 5615 5618 5623 5628 5634 5639 5644 5650 5654 5659 5665 5669 5673 5681 5689 5695 5700 5705 5709 5713 5718 5722 5726 5730 5733 5738 5742 5745 5748 5750 5752 5756 5759 5762 5764 5767 5769 5772 5775 5776 5777 5779 5781 5781 5782 5784 5785
5722 5719 5715 5712 5708 5705 5700 5696 5691 5686 5680 5673 5668 5664 5659 5654 5649 5645 5640 5636 5632 5628 5624 5622 5620 5618 5617 5615 5613 5612 5611 5609 5608 5607 5606 5604 5604 5604 5604 5605 5606 5608 5611 5615 5620 5625 5631 5636 5641 5647 5653 5658 5663 5669 5677 5684 5689 5695 5700 5704 5709 5714 5718 5722 5727 5731 5735 5738 5742 5745 5747 5751 5754 5757 5760 5762 5764 5767 5769 5772 5774 5776 5777 5779 5780 5781 5782 5783
5722 5719 5715 5712 5708 5704 5700 5695 5690 5685 5679 5673 5667 5662 5657 5652 5647 5643 5639 5634 5630 5627 5624 5622 5621 5619 5618 5616 5615 5613 5611 5609 5608 5607 5605 5603 5602 5601 5601 5601 5601 5603 5605 5608 5613 5617 5623 5629 5634 5639 5646 5652 5658 5664 5670 5678 5684 5690 5695 5699 5704 5709 5714 5720 5724 5728 5732 5736 5739 5742 5744 5749 5752 5754 5757 5759 5761 5764 5766 5768 5771 5773 5775 5776 5777 5778 5779 5780
5722 5719 5716 5712 5708 5704 5700 5695 5690 5685 5679 5672 5666 5661 5656 5651 5647 5643 5638 5633 5629 5626 5625 5624 5622 5621 5619 5617 5615 5612 5611 5610 5608 5606 5605 5603 5602 5600 5599 5598 5598 5599 5601 5604 5607 5611 5616 5622 5627 5633 5640 5647 5653 5658 5665 5673 5678 5684 5690 5696 5703 5707 5711 5716 5721 5725 5729 5733 5736 5739 5742 5746 5749 5751 5754 5756 5759 5761 5764 5766 5768 5770 5772 5774 5775 5776 5777 5777
5723 5719 5716 5712 5708 5704 5700 5695 5690 5685 5679 5673 5666 5660 5655 5650 5645 5642 5638 5634 5630 5627 5625 5625 5623 5621 5619 5617 5615 5613 5612 5611 5609 5606 5604 5603 5601 5600 5598 5597 5595 5596 5598 5601 5604 5607 5612 5616 5622 5628 5635 5642 5647 5653 5660 5666 5672 5679 5686 5693 5701 5705 5709 5714 5717 5722 5726 5730 5733 5736 5740 5744 5747 5749 5752 5754 5757 5760 5762 5764 5766 5768 5770 5772 5774 5775 5775 5775
5724 5720 5716 5712 5708 5704 5700 5695 5690 5685 5679 5673 5666 5661 5655 5649 5643 5639 5636 5633 5630 5627 5626 5625 5624 5622 5619 5617 5616 5615 5613 5611 5608 5605 5603 5602 5601 5600 5598 5597 5595 5594 5595 5598 5601 5604 5608 5613 5617 5623 5630 5637 5642 5649 5657 5664 5672 5678 5684 5691 5697 5700 5705 5712 5716 5720 5724 5728 5731 5734 5738 5741 5745 5748 5750 5753 5755 5758 5760 5762 5764 5767 5768 5770 5772 5773 5773 5773
5724 5721 5717 5713 5709 5705 5700 5695 5690 5685 5679 5673 5666 5661 5656 5651 5645 5640 5635 5632 5629 5629 5628 5627 5625 5623 5620 5618 5617 5615 5613 5611 5608 5605 5603 5602 5601 5599 5598 5597 5596 5594 5594 5596 5599 5602 5606 5609 5614 5621 5627 5633 5639 5647 5655 5663 5671 5677 5683 5691 5696 5699 5704 5710 5716 5720 5724 5727 5730 5733 5736 5739 5743 5746 5749 5752 5754 5756 5758 5760 5762 5765 5767 5768 5769 5770 5770 5771
5725 5722 5718 5714 5710 5705 5701 5696 5690 5685 5680 5673 5666 5661 5657 5653 5649 5644 5640 5636 5634 5633 5631 5628 5626 5623 5621 5619 5617 5616 5614 5611 5609 5606 5604 5602 5600 5599 5598 5597 5596 5596 5595 5596 5598 5600 5604 5608 5614 5620 5625 5632 5639 5646 5653 5660 5667 5673 5681 5688 5694 5699 5703 5709 5715 5719 5723 5726 5728 5731 5735 5738 5742 5745 5749 5751 5753 5755 5757 5759 5761 5763 5764 5765 5766 5767 5767 5769
5726 5723 5719 5715 5711 5706 5702 5697 5691 5686 5680 5673 5668 5663 5658 5654 5650 5646 5643 5641 5638 5635 5632 5630 5627 5624 5622 5620 5619 5617 5615 5613 5610 5608 5606 5604 5601 5599 5597 5596 5596 5596 5596 5596 5598 5600 5604 5609 5614 5620 5626 5632 5639 5645 5651 5658 5665 5671 5679 5686 5691 5696 5701 5707 5713 5717 5721 5724 5726 5730 5734 5737 5741 5744 5747 5749 5751 5754 5756 5758 5759 5761 5762 5763 5764 5764 5766 5768
5728 5724 5721 5717 5713 5708 5703 5698 5692 5687 5681 5675 5671 5665 5658 5654 5651 5647 5644 5642 5639 5636 5633 5631 5629 5627 5625 5623 5621 5619 5617 5614 5612 5610 5607 5605 5602 5599 5597 5596 5596 5597 5597 5598 5599 5601 5605 5610 5615 5620 5626 5633 5638 5644 5651 5657 5663 5670 5677 5684 5689 5694 5700 5706 5711 5716 5719 5722 5725 5729 5733 5736 5739 5743 5745 5747 5750 5752 5754 5756 5757 5759 5760 5761 5762 5764 5765 5766
5729 5726 5723 5719 5715 5711 5706 5700 5695 5690 5684 5679 5674 5667 5660 5656 5652 5649 5646 5643 5640 5638 5636 5634 5632 5630 5628 5626 5624 5622 5619 5616 5614 5611 5608 5605 5603 5600 5598 5597 5596 5597 5598 5600 5601 5602 5606 5611 5616 5621 5628 5635 5641 5646 5651 5657 5663 5670 5677 5683 5688 5693 5699 5705 5710 5714 5717 5720 5724 5728 5732 5734 5737 5740 5743 5746 5748 5750 5752 5754 5756 5758 5759 5760 5762 5763 5764 5764
5731 5728 5724 5721 5717 5713 5709 5704 5699 5694 5689 5685 5678 5671 5665 5660 5656 5652 5649 5647 5645 5644 5641 5638 5636 5634 5632 5629 5627 5625 5622 5619 5616 5613 5609 5607 5605 5603 5601 5599 5597 5598 5600 5601 5602 5604 5608 5613 5618 5624 5630 5637 5644 5649 5653 5659 5664 5670 5677 5683 5689 5694 5700 5705 5710 5713 5716 5719 5722 5726 5729 5732 5735 5738 5741 5744 5747 5749 5751 5753 5754 5756 5758 5759 5760 5760 5761 5761
5733 5730 5727 5723 5719 5716 5712 5707 5703 5699 5695 5690 5684 5678 5671 5666 5661 5657 5654 5653 5651 5648 5645 5642 5640 5638 5635 5632 5630 5627 5625 5621 5618 5615 5611 5609 5608 5607 5605 5602 5600 5601 5602 5603 5604 5607 5611 5616 5621 5628 5634 5640 5647 5653 5657 5662 5667 5672 5677 5683 5689 5695 5701 5706 5710 5713 5716 5718 5721 5724 5726 5729 5733 5737 5740 5742 5745 5747 5749 5751 5753 5754 5755 5756 5757 5757 5758 5759
5735 5732 5729 5725 5722 5718 5714 5710 5706 5703 5699 5694 5690 5685 5679 5673 5669 5665 5662 5659 5655 5651 5648 5646 5644 5641 5638 5636 5633 5630 5627 5624 5621 5618 5614 5612 5611 5611 5610 5608 5606 5606 5607 5607 5607 5611 5615 5621 5627 5633 5639 5645 5651 5657 5660 5664 5670 5675 5678 5684 5689 5695 5700 5705 5709 5712 5715 5718 5721 5723 5725 5728 5732 5735 5738 5740 5743 5745 5747 5749 5750 5751 5752 5753 5754 5756 5757 5757
5737 5734 5731 5728 5725 5721 5717 5713 5709 5706 5703 5699 5694 5690 5685 5681 5676 5673 5671 5665 5658 5655 5652 5650 5648 5645 5642 5639 5636 5633 5631 5627 5624 5622 5619 5617 5615 5614 5614 5614 5613 5613 5614 5613 5613 5616 5621 5627 5633 5637 5643 5650 5654 5659 5663 5667 5672 5677 5681 5686 5690 5695 5699 5703 5708 5711 5715 5718 5720 5722 5724 5727 5731 5734 5736 5739 5741 5743 5745 5747 5748 5749 5750 5751 5753 5754 5755 5756
5739 5736 5733 5730 5727 5724 5720 5716 5712 5710 5707 5703 5698 5693 5690 5687 5681 5680 5676 5665 5659 5657 5655 5652 5651 5648 5646 5643 5640 5638 5635 5632 5630 5627 5623 5621 5619 5619 5619 5619 5618 5618 5619 5621 5620 5622 5627 5633 5639 5643 5647 5654 5657 5661 5666 5669 5674 5679 5683 5687 5691 5695 5699 5703 5707 5710 5713 5716 5718 5720 5723 5726 5729 5732 5735 5737 5739 5741 5743 5744 5746 5747 5749 5750 5751 5752 5752 5753
5742 5739 5736 5733 5730 5727 5724 5720 5716 5713 5711 5707 5702 5698 5695 5691 5687 5685 5676 5664 5660 5660 5657 5655 5654 5652 5649 5647 5646 5643 5640 5638 5636 5631 5627 5626 5624 5626 5627 5624 5623 5623 5624 5627 5627 5628 5634 5639 5643 5647 5651 5657 5661 5664 5668 5672 5677 5682 5685 5688 5692 5697 5701 5705 5708 5710 5712 5715 5717 5719 5723 5726 5728 5731 5734 5737 5739 5740 5741 5742 5744 5745 5746 5747 5748 5749 5749 5750
5744 5741 5739 5736 5733 5730 5727 5723 5720 5717 5715 5712 5707 5703 5699 5696 5695 5689 5674 5665 5664 5662 5661 5660 5658 5656 5653 5652 5652 5649 5646 5644 5641 5637 5635 5632 5631 5633 5634 5631 5630 5630 5631 5635 5635 5636 5641 5645 5648 5652 5655 5660 5664 5667 5671 5675 5680 5685 5687 5690 5693 5697 5701 5705 5707 5710 5712 5714 5717 5720 5724 5726 5728 5731 5733 5736 5737 5738 5740 5741 5742 5743 5744 5745 5746 5747 5747 5747
5747 5744 5741 5738 5736 5733 5730 5727 5723 5721 5720 5716 5712 5708 5704 5702 5699 5688 5675 5671 5669 5667 5667 5665 5662 5660 5658 5658 5656 5653 5652 5649 5646 5644 5642 5639 5639 5641 5641 5639 5638 5639 5639 5640 5641 5644 5647 5651 5654 5657 5660 5663 5668 5671 5675 5679 5684 5688 5690 5692 5695 5699 5701 5705 5708 5710 5713 5715 5718 5721 5723 5725 5728 5730 5732 5733 5735 5737 5738 5739 5740 5741 5742 5743 5744 5744 5745 5745
5749 5746 5744 5741 5739 5736 5733 5730 5727 5724 5723 5721 5716 5712 5710 5708 5700 5687 5680 5678 5675 5675 5674 5670 5667 5665 5663 5662 5660 5658 5657 5655 5652 5651 5648 5647 5648 5648 5647 5646 5647 5648 5647 5646 5647 5650 5653 5657 5659 5661 5665 5668 5671 5675 5678 5682 5686 5690 5693 5696 5699 5701 5703 5706 5709 5711 5714 5716 5718 5720 5722 5725 5727 5729 5731 5732 5734 5735 5736 5738 5739 5740 5741 5741 5742 5742 5742 5742
5752 5749 5746 5744 5741 5739 5736 5734 5731 5728 5726 5725 5720 5716 5715 5711 5699 5690 5688 5685 5682 5683 5680 5675 5673 5670 5667 5667 5664 5662 5662 5660 5658 5657 5655 5654 5655 5654 5653 5653 5653 5654 5654 5653 5654 5655 5657 5662 5665 5666 5669 5673 5676 5680 5682 5685 5688 5692 5695 5698 5701 5704 5706 5708 5711 5713 5715 5717 5718 5720 5722 5724 5727 5728 5730 5731 5733 5734 5735 5737 5737 5738 5738 5739 5739 5739 5739 5739
5754 5752 5749 5746 5744 5742 5739 5737 5734 5731 5730 5727 5723 5721 5719 5711 5700 5697 5696 5692 5690 5689 5685 5682 5680 5676 5675 5672 5668 5667 5666 5664 5663 5662 5662 5662 5661 5659 5657 5658 5658 5659 5660 5660 5662 5662 5662 5666 5669 5672 5674 5677 5681 5684 5686 5689 5691 5694 5698 5700 5703 5706 5708 5711 5713 5714 5716 5717 5719 5721 5722 5724 5726 5727 5729 5730 5731 5733 5734 5734 5735 5735 5736 5736 5736 5736 5735 5735
5756 5754 5752 5749 5748 5745 5742 5740 5737 5736 5733 5728 5727 5728 5722 5712 5706 5705 5702 5698 5697 5694 5691 5690 5686 5683 5681 5677 5674 5673 5671 5669 5667 5667 5668 5668 5666 5664 5663 5663 5664 5664 5666 5668 5668 5669 5669 5670 5674 5677 5679 5681 5685 5687 5690 5693 5695 5698 5701 5703 5705 5708 5710 5712 5714 5715 5716 5718 5719 5721 5722 5724 5725 5726 5727 5728 5729 5730 5731 5731 5732 5732 5733 5733 5733 5733 5733 5733
5759 5757 5755 5752 5750 5747 5746 5743 5740 5740 5735 5730 5732 5732 5723 5716 5714 5711 5707 5705 5703 5700 5698 5696 5693 5690 5687 5684 5681 5679 5676 5675 5674 5675 5674 5672 5670 5669 5669 5669 5669 5670 5672 5674 5674 5675 5675 5676 5678 5682 5684 5686 5689 5691 5694 5696 5698 5701 5703 5705 5707 5709 5711 5713 5714 5715 5716 5717 5719 5720 5721 5722 5723 5724 5725 5726 5727 5728 5728 5729 5729 5730 5730 5731 5731 5731 5731 5732
5761 5759 5757 5755 5753 5750 5748 5746 5744 5743 5736 5733 5737 5734 5725 5722 5720 5716 5713 5711 5709 5706 5705 5703 5700 5696 5693 5691 5688 5686 5684 5683 5682 5682 5680 5677 5675 5674 5674 5675 5675 5676 5678 5679 5680 5681 5682 5682 5684 5686 5688 5691 5693 5695 5697 5700 5701 5704 5705 5707 5709 5710 5712 5713 5713 5715 5716 5717 5718 5719 5721 5722 5723 5724 5724 5725 5726 5726 5727 5728 5729 5729 5730 5730 5731 5731 5731 5731
5763 5761 5760 5757 5755 5753 5751 5748 5747 5745 5739 5739 5740 5735 5730 5728 5724 5721 5720 5717 5715 5713 5711 5709 5705 5701 5700 5698 5696 5694 5693 5692 5690 5689 5686 5683 5681 5679 5681 5681 5681 5682 5683 5684 5686 5687 5688 5689 5689 5691 5693 5695 5697 5698 5700 5702 5704 5706 5707 5709 5710 5711 5712 5713 5714 5716 5717 5718 5719 5720 5722 5722 5723 5724 5725 5726 5726 5727 5728 5728 5729 5730 5730 5731 5731 5731 5731 5731
5765 5764 5762 5760 5758 5756 5754 5752 5751 5746 5743 5744 5743 5738 5734 5732 5729 5727 5725 5722 5721 5719 5716 5714 5710 5708 5707 5705 5703 5702 5701 5699 5698 5697 5694 5691 5688 5687 5688 5688 5687 5688 5689 5690 5691 5692 5694 5695 5695 5696 5697 5699 5700 5702 5703 5705 5707 5708 5710 5711 5713 5714 5715 5716 5717 5718 5719 5720 5721 5722 5723 5724 5725 5726 5727 5727 5728 5729 5729 5730 5730 5731 5731 5731 5731 5731 5731 5730
5767 5766 5764 5762 5761 5758 5757 5756 5753 5749 5747 5747 5745 5741 5739 5736 5734 5732 5729 5728 5726 5724 5721 5719 5717 5715 5713 5711 5710 5709 5708 5706 5705 5704 5701 5698 5697 5696 5695 5695 5695 5696 5696 5697 5697 5698 5699 5701 5701 5701 5703 5704 5705 5706 5708 5709 5711 5712 5713 5715 5716 5717 5718 5719 5720 5721 5722 5723 5724 5725 5726 5727 5728 5728 5729 5729 5730 5730 5731 5731 5731 5731 5731 5731 5731 5731 5731 5730
5769 5768 5766 5764 5763 5761 5760 5758 5755 5753 5752 5750 5747 5745 5743 5740 5738 5736 5734 5732 5730 5728 5726 5724 5722 5721 5719 5717 5716 5715 5714 5712 5711 5710 5708 5706 5705 5704 5703 5703 5703 5703 5704 5704 5705 5705 5706 5707 5707 5708 5709 5710 5711 5712 5713 5714 5716 5717 5718 5719 5720 5721 5722 5723 5724 5725 5725 5726 5727 5728 5728 5729 5730 5730 5731 5731 5731 5731 5732 5732 5732 5732 5732 5731 5731 5731 5730 5730
5770 5769 5768 5767 5765 5763 5762 5760 5758 5757 5755 5753 5751 5749 5746 5744 5742 5740 5738 5737 5735 5733 5731 5729 5728 5726 5724 5723 5722 5720 5719 5718 5717 5716 5714 5713 5712 5711 5710 5711 5710 5711 5711 5711 5711 5712 5713 5713 5713 5714 5715 5715 5716 5717 5718 5719 5720 5721 5722 5723 5724 5724 5725 5726 5727 5727 5728 5729 5729 5730 5730 5730 5731 5731 5732 5732 5732 5732 5732 5732 5732 5732 5732 5731 5731 5730 5729 5729
5771 5770 5769 5768 5767 5766 5764 5763 5761 5760 5758 5756 5754 5752 5750 5748 5746 5744 5743 5741 5739 5737 5735 5734 5733 5731 5730 5728 5727 5726 5725 5723 5722 5721 5719 5719 5718 5717 5717 5717 5717 5717 5717 5717 5718 5718 5719 5718 5719 5720 5720 5720 5721 5722 5722 5723 5724 5724 5725 5726 5727 5727 5728 5728 5729 5729 5730 5730 5731 5731 5731 5731 5732 5732 5732 5732 5732 5732 5732 5732 5732 5731 5731 5730 5730 5729 5728 5727
5772 5771 5770 5769 5768 5768 5766 5765 5763 5762 5760 5759 5757 5755 5754 5752 5750 5748 5747 5745 5743 5742 5740 5738 5737 5736 5734 5733 5732 5731 5730 5728 5727 5726 5725 5724 5723 5723 5722 5722 5722 5722 5722 5722 5722 5723 5723 5723 5723 5724 5724 5724 5725 5725 5726 5726 5727 5727 5728 5728 5729 5729 5730 5730 5730 5731 5731 5731 5732 5732 5732 5732 5732 5732 5732 5732 5732 5732 5732 5731 5731 5730 5729 5729 5728 5727 5726 5725
5774 5773 5772 5770 5769 5768 5768 5767 5766 5764 5763 5761 5760 5758 5757 5755 5754 5752 5750 5749 5747 5745 5744 5743 5741 5740 5739 5737 5736 5735 5734 5733 5732 5731 5730 5729 5728 5728 5727 5727 5727 5727 5727 5727 5727 5727 5727 5727 5727 5728 5728 5728 5728 5729 5729 5729 5730 5730 5730 5731 5731 5731 5732 5732 5732 5732 5732 5732 5732 5732 5732 5732 5732 5732 5732 5732 5732 5731 5731 5730 5729 5729 5728 5727 5727 5726 5725 5724
5775 5774 5773 5772 5771 5770 5769 5768 5767 5766 5765 5763 5762 5761 5760 5758 5757 5755 5754 5753 5751 5749 5748 5747 5745 5744 5743 5742 5741 5739 5739 5738 5737 5736 5735 5734 5734 5733 5732 5732 5731 5731 5731 5731 5731 5731 5731 5731 5731 5731 5731 5731 5731 5731 5732 5732 5732 5732 5733 5733 5733 5733 5733 5733 5733 5733 5733 5733 5733 5733 5733 5733 5732 5732 5732 5731 5731 5730 5730 5729 5728 5728 5727 5726 5725 5725 5723 5722
5775 5775 5774 5773 5772 5771 5770 5769 5768 5767 5766 5765 5764 5763 5762 5761 5759 5758 5757 5756 5754 5753 5752 5751 5749 5748 5747 5746 5745 5743 5743 5742 5741 5740 5739 5738 5738 5737 5737 5736 5736 5736 5735 5735 5735 5735 5734 5734 5734 5734 5734 5734 5734 5734 5734 5734 5734 5734 5734 5735 5735 5735 5735 5734 5734 5734 5734 5734 5734 5733 5733 5733 5733 5732 5732 5731 5731 5730 5729 5729 5728 5727 5726 5725 5724 5723 5722 5720
5776 5776 5775 5774 5774 5773 5772 5771 5770 5769 5768 5767 5766 5765 5764 5763 5762 5761 5760 5759 5757 5756 5755 5754 5753 5752 5751 5750 5748 5747 5746 5745 5744 5743 5743 5742 5742 5741 5741 5740 5740 5740 5739 5739 5739 5738 5738 5738 5738 5737 5737 5737 5737 5737 5736 5737 5736 5736 5736 5736 5736 5736 5736 5736 5736 5735 5735 5735 5735 5734 5734 5734 5733 5733 5732 5732 5731 5730 5729 5728 5727 5726 5725 5724 5723 5722 5720 5719
5777 5776 5776 5775 5775 5774 5773 5772 5771 5770 5769 5768 5767 5766 5765 5764 5763 5763 5762 5761 5760 5759 5758 5757 5756 5755 5754 5753 5752 5751 5750 5749 5748 5747 5746 5746 5745 5745 5744 5744 5743 5743 5743 5742 5742 5742 5741 5741 5741 5741 5740 5740 5739 5739 5739 5739 5738 5738 5738 5738 5738 5738 5737 5737 5737 5736 5736 5736 5735 5735 5734 5734 5733 5732 5732 5731 5731 5730 5728 5727 5726 5725 5724 5723 5722 5721 5719 5717
5776 5776 5776 5776 5775 5775 5774 5773 5772 5772 5771 5770 5768 5767 5766 5765 5765 5764 5763 5763 5762 5761 5760 5759 5758 5758 5757 5756 5755 5754 5753 5753 5752 5751 5750 5749 5749 5748 5747 5747 5746 5746 5746 5745 5745 5745 5744 5744 5743 5743 5742 5742 5742 5741 5741 5740 5740 5740 5739 5739 5739 5739 5738 5738 5737 5737 5736 5736 5735 5735 5734 5734 5733 5732 5731 5731 5730 5729 5727 5726 5724 5723 5722 5722 5721 5719 5718 5715
5775 5775 5776 5776 5776 5775 5775 5774 5773 5772 5771 5771 5770 5769 5768 5766 5765 5765 5764 5764 5763 5763 5762 5761 5761 5760 5759 5758 5758 5757 5756 5755 5754 5754 5753 5752 5752 5751 5750 5750 5749 5749 5749 5748 5748 5747 5747 5746 5746 5745 5744 5744 5743 5743 5742 5742 5741 5741 5740 5740 5739 5739 5739 5738 5738 5737 5737 5736 5735 5735 5734 5733 5732 5731 5730 5729 5728 5727 5725 5724 5723 5722 5721 5720 5719 5717 5715 5713
5774 5774 5774 5775 5775 5775 5775 5774 5774 5773 5772 5771 5771 5770 5769 5768 5767 5766 5765 5764 5764 5764 5763 5763 5762 5762 5761 5760 5760 5759 5758 5758 5757 5756 5755 5755 5754 5753 5753 5752 5752 5751 5751 5750 5750 5749 5748 5748 5747 5747 5746 5746 5745 5745 5744 5743 5743 5742 5741 5741 5740 5739 5739 5738 5738 5737 5736 5736 5735 5734 5733 5733 5732 5731 5730 5728 5727 5725 5723 5721 5721 5720 5720 5719 5717 5715 5713 5711